Photometre #234[NE_1.6] Punta_Arenas_UMAG AOT

File : 20190926_234.hum

26/09/2019,11:25:45,TEMP=7.1,BA=5.64,STAT.A=Abs.,ExtBa=13.91
26/09/2019,11:30:04,TEMP=7.3,BA=5.60,STAT.A=Abs.,ExtBa=13.91
26/09/2019,11:33:19,TEMP=7.7,BA=5.60,STAT.D=Abs.,ExtBa=13.87
26/09/2019,11:35:07,TEMP=8.0,BA=5.60,STAT.A=Abs.,ExtBa=13.79
26/09/2019,11:39:19,TEMP=8.1,BA=5.60,STAT.D=Abs.,ExtBa=13.80
26/09/2019,11:41:08,TEMP=8.3,BA=5.56,STAT.A=Abs.,ExtBa=13.73
26/09/2019,11:45:19,TEMP=8.1,BA=5.56,STAT.D=Abs.,ExtBa=13.75
26/09/2019,11:48:19,TEMP=8.1,BA=5.56,STAT.D=Abs.,ExtBa=13.71
26/09/2019,11:50:05,TEMP=8.3,BA=5.56,STAT.A=Abs.,ExtBa=13.64
26/09/2019,11:54:19,TEMP=7.8,BA=5.56,STAT.D=Abs.,ExtBa=13.67
26/09/2019,11:57:19,TEMP=7.6,BA=5.56,STAT.D=Abs.,ExtBa=13.65
26/09/2019,11:59:06,TEMP=7.8,BA=5.56,STAT.A=Abs.,ExtBa=13.56
26/09/2019,12:03:19,TEMP=7.5,BA=5.56,STAT.D=Abs.,ExtBa=13.59
26/09/2019,12:06:19,TEMP=7.5,BA=5.56,STAT.D=Abs.,ExtBa=13.57
26/09/2019,12:08:53,TEMP=7.6,BA=5.56,STAT.B=Abs.,ExtBa=13.53
26/09/2019,12:18:02,TEMP=7.6,BA=5.56,STAT.A=Abs.,ExtBa=12.98
26/09/2019,12:20:35,TEMP=7.7,BA=5.60,STAT.A=Abs.,ExtBa=13.10
26/09/2019,12:24:19,TEMP=7.7,BA=5.60,STAT.D=Abs.,ExtBa=13.20
26/09/2019,12:27:19,TEMP=7.8,BA=5.60,STAT.D=Abs.,ExtBa=13.22
26/09/2019,12:29:08,TEMP=8.0,BA=5.60,STAT.A=Abs.,ExtBa=13.19
26/09/2019,12:33:19,TEMP=7.9,BA=5.52,STAT.D=Abs.,ExtBa=13.27
26/09/2019,12:35:38,TEMP=8.0,BA=5.52,STAT.A=Abs.,ExtBa=13.25
26/09/2019,12:39:19,TEMP=8.0,BA=5.52,STAT.D=Abs.,ExtBa=13.29
26/09/2019,12:42:19,TEMP=8.0,BA=5.52,STAT.D=Abs.,ExtBa=13.29
26/09/2019,12:44:56,TEMP=8.1,BA=5.52,STAT.C=Abs.,ExtBa=13.26
26/09/2019,12:59:24,TEMP=8.9,BA=5.52,STAT.A=Abs.,ExtBa=13.08
26/09/2019,13:03:19,TEMP=9.2,BA=5.52,STAT.D=Abs.,ExtBa=13.19
26/09/2019,13:06:19,TEMP=9.5,BA=5.52,STAT.D=Abs.,ExtBa=13.20
26/09/2019,13:08:59,TEMP=9.6,BA=5.52,STAT.A=Abs.,ExtBa=13.20
26/09/2019,13:12:19,TEMP=9.7,BA=5.52,STAT.D=Abs.,ExtBa=13.23
26/09/2019,13:15:19,TEMP=9.8,BA=5.52,STAT.D=Abs.,ExtBa=13.23
26/09/2019,13:18:20,TEMP=10.0,BA=5.52,STAT.D=Abs.,ExtBa=13.24
26/09/2019,13:21:20,TEMP=10.1,BA=5.56,STAT.D=Abs.,ExtBa=13.25
26/09/2019,13:24:20,TEMP=10.3,BA=5.56,STAT.D=Abs.,ExtBa=13.23
26/09/2019,13:26:09,TEMP=10.5,BA=5.56,STAT.A=Abs.,ExtBa=13.19
26/09/2019,13:30:20,TEMP=10.5,BA=5.64,STAT.D=Abs.,ExtBa=13.26
26/09/2019,13:33:20,TEMP=10.6,BA=5.64,STAT.D=Abs.,ExtBa=13.25
26/09/2019,13:35:32,TEMP=10.6,BA=5.64,STAT.F,ExtBa=13.22
26/09/2019,13:50:31,TEMP=10.1,BA=5.56,STAT.D=Abs.,ExtBa=13.09
26/09/2019,13:54:18,TEMP=9.9,BA=5.56,STAT.D=Abs.,ExtBa=13.18
26/09/2019,13:57:20,TEMP=9.8,BA=5.56,STAT.D=Abs.,ExtBa=13.19
26/09/2019,14:00:20,TEMP=9.9,BA=5.64,STAT.D=Abs.,ExtBa=13.19
26/09/2019,14:03:20,TEMP=9.9,BA=5.64,STAT.D=Abs.,ExtBa=13.10
26/09/2019,14:05:41,TEMP=10.0,BA=5.64,STAT.D=Abs.,ExtBa=13.01
26/09/2019,14:09:20,TEMP=9.6,BA=5.64,STAT.D=Abs.,ExtBa=13.16
26/09/2019,14:12:20,TEMP=9.6,BA=5.52,STAT.D=Abs.,ExtBa=13.19
26/09/2019,14:15:20,TEMP=9.5,BA=5.52,STAT.D=Abs.,ExtBa=13.21
26/09/2019,14:18:20,TEMP=9.5,BA=5.52,STAT.D=Abs.,ExtBa=13.22
26/09/2019,14:20:31,TEMP=9.6,BA=5.56,STAT.D=Abs.,ExtBa=13.21
26/09/2019,14:24:20,TEMP=9.4,BA=5.56,STAT.D=Abs.,ExtBa=13.26
26/09/2019,14:27:20,TEMP=9.3,BA=5.56,STAT.D=Abs.,ExtBa=13.27
26/09/2019,14:30:20,TEMP=9.3,BA=5.64,STAT.D=Abs.,ExtBa=13.28
26/09/2019,14:33:20,TEMP=9.5,BA=5.64,STAT.D=Abs.,ExtBa=13.28
26/09/2019,14:35:33,TEMP=9.5,BA=5.64,STAT.F,ExtBa=13.26
26/09/2019,14:39:21,TEMP=9.4,BA=5.64,STAT.D=Abs.,ExtBa=13.28
26/09/2019,14:42:20,TEMP=9.5,BA=5.52,STAT.D=Abs.,ExtBa=13.29
26/09/2019,14:45:20,TEMP=9.5,BA=5.52,STAT.D=Abs.,ExtBa=13.26
26/09/2019,14:48:21,TEMP=9.6,BA=5.52,STAT.D=Abs.,ExtBa=13.26
26/09/2019,14:50:32,TEMP=9.6,BA=5.52,STAT.D=Abs.,ExtBa=13.15
26/09/2019,14:54:21,TEMP=9.6,BA=5.52,STAT.D=Abs.,ExtBa=13.23
26/09/2019,14:57:21,TEMP=9.8,BA=5.52,STAT.D=Abs.,ExtBa=13.23
26/09/2019,15:00:21,TEMP=10.0,BA=5.64,STAT.D=Abs.,ExtBa=13.23
26/09/2019,15:03:21,TEMP=10.2,BA=5.64,STAT.D=Abs.,ExtBa=13.23
26/09/2019,15:05:32,TEMP=10.5,BA=5.64,STAT.D=Abs.,ExtBa=13.20
26/09/2019,15:09:21,TEMP=10.5,BA=5.64,STAT.D=Abs.,ExtBa=13.26
26/09/2019,15:12:21,TEMP=10.6,BA=5.52,STAT.D=Abs.,ExtBa=13.26
26/09/2019,15:15:21,TEMP=10.8,BA=5.52,STAT.D=Abs.,ExtBa=13.26
26/09/2019,15:18:21,TEMP=11.0,BA=5.52,STAT.D=Abs.,ExtBa=13.27
26/09/2019,15:20:32,TEMP=11.2,BA=5.56,STAT.D=Abs.,ExtBa=13.23
26/09/2019,15:24:21,TEMP=11.0,BA=5.56,STAT.D=Abs.,ExtBa=13.28
26/09/2019,15:27:21,TEMP=11.0,BA=5.56,STAT.D=Abs.,ExtBa=13.28
26/09/2019,15:30:21,TEMP=10.9,BA=5.64,STAT.D=Abs.,ExtBa=13.29
26/09/2019,15:33:21,TEMP=10.9,BA=5.64,STAT.D=Abs.,ExtBa=13.28
26/09/2019,15:35:34,TEMP=11.0,BA=5.64,STAT.F,ExtBa=13.24
26/09/2019,15:50:32,TEMP=11.1,BA=5.52,STAT.D=Abs.,ExtBa=13.09
26/09/2019,15:54:21,TEMP=11.1,BA=5.52,STAT.D=Abs.,ExtBa=13.18
26/09/2019,15:57:22,TEMP=11.1,BA=5.52,STAT.D=Abs.,ExtBa=13.19
26/09/2019,16:00:21,TEMP=11.2,BA=5.64,STAT.D=Abs.,ExtBa=13.21
26/09/2019,16:03:22,TEMP=11.6,BA=5.64,STAT.D=Abs.,ExtBa=13.22
26/09/2019,16:05:33,TEMP=12.1,BA=5.64,STAT.D=Abs.,ExtBa=13.17
26/09/2019,16:09:22,TEMP=12.7,BA=5.64,STAT.D=Abs.,ExtBa=13.23
26/09/2019,16:12:22,TEMP=13.0,BA=5.52,STAT.D=Abs.,ExtBa=13.23
26/09/2019,16:15:22,TEMP=13.1,BA=5.52,STAT.D=Abs.,ExtBa=13.24
26/09/2019,16:18:22,TEMP=13.0,BA=5.52,STAT.D=Abs.,ExtBa=13.24
26/09/2019,16:20:33,TEMP=13.1,BA=5.52,STAT.D=Abs.,ExtBa=13.22
26/09/2019,16:24:22,TEMP=13.1,BA=5.52,STAT.D=Abs.,ExtBa=13.27
26/09/2019,16:27:22,TEMP=13.3,BA=5.52,STAT.D=Abs.,ExtBa=13.26
26/09/2019,16:30:22,TEMP=13.1,BA=5.64,STAT.D=Abs.,ExtBa=13.27
26/09/2019,16:33:22,TEMP=13.1,BA=5.64,STAT.D=Abs.,ExtBa=13.28
26/09/2019,16:35:34,TEMP=13.1,BA=5.64,STAT.F,ExtBa=13.24
26/09/2019,16:50:33,TEMP=13.1,BA=5.56,STAT.D=Abs.,ExtBa=13.08
26/09/2019,16:54:22,TEMP=13.0,BA=5.56,STAT.D=Abs.,ExtBa=13.17
26/09/2019,16:57:22,TEMP=13.0,BA=5.56,STAT.D=Abs.,ExtBa=13.19
26/09/2019,17:00:22,TEMP=13.1,BA=5.64,STAT.D=Abs.,ExtBa=13.19
26/09/2019,17:03:22,TEMP=13.0,BA=5.64,STAT.D=Abs.,ExtBa=13.21
26/09/2019,17:05:33,TEMP=12.9,BA=5.64,STAT.D=Abs.,ExtBa=13.18
26/09/2019,17:09:22,TEMP=12.5,BA=5.64,STAT.D=Abs.,ExtBa=13.23
26/09/2019,17:12:22,TEMP=12.2,BA=5.52,STAT.D=Abs.,ExtBa=13.22
26/09/2019,17:15:21,TEMP=12.1,BA=5.52,STAT.D=Abs.,ExtBa=13.21
26/09/2019,17:18:21,TEMP=12.0,BA=5.52,STAT.D=Abs.,ExtBa=13.23
26/09/2019,17:20:32,TEMP=12.0,BA=5.52,STAT.D=Abs.,ExtBa=13.20
26/09/2019,17:24:21,TEMP=12.1,BA=5.52,STAT.D=Abs.,ExtBa=13.24
26/09/2019,17:27:21,TEMP=12.1,BA=5.52,STAT.D=Abs.,ExtBa=13.24
26/09/2019,17:30:21,TEMP=12.0,BA=5.60,STAT.D=Abs.,ExtBa=13.24
26/09/2019,17:33:21,TEMP=11.8,BA=5.60,STAT.D=Abs.,ExtBa=13.24
26/09/2019,17:35:34,TEMP=11.8,BA=5.60,STAT.F,ExtBa=13.21
26/09/2019,17:50:32,TEMP=12.0,BA=5.52,STAT.D=Abs.,ExtBa=13.06
26/09/2019,17:54:19,TEMP=12.1,BA=5.52,STAT.D=Abs.,ExtBa=13.13
26/09/2019,17:57:21,TEMP=12.0,BA=5.52,STAT.D=Abs.,ExtBa=13.14
26/09/2019,18:00:21,TEMP=12.1,BA=5.60,STAT.D=Abs.,ExtBa=13.16
26/09/2019,18:03:21,TEMP=12.1,BA=5.60,STAT.D=Abs.,ExtBa=13.17
26/09/2019,18:05:32,TEMP=12.3,BA=5.60,STAT.D=Abs.,ExtBa=13.13
26/09/2019,18:09:19,TEMP=12.3,BA=5.60,STAT.D=Abs.,ExtBa=13.18
26/09/2019,18:12:21,TEMP=12.6,BA=5.48,STAT.D=Abs.,ExtBa=13.19
26/09/2019,18:15:21,TEMP=12.8,BA=5.48,STAT.D=Abs.,ExtBa=13.20
26/09/2019,18:18:21,TEMP=13.2,BA=5.48,STAT.D=Abs.,ExtBa=13.21
26/09/2019,18:20:32,TEMP=13.5,BA=5.52,STAT.D=Abs.,ExtBa=13.17
26/09/2019,18:24:21,TEMP=13.7,BA=5.52,STAT.D=Abs.,ExtBa=13.22
26/09/2019,18:27:21,TEMP=13.8,BA=5.52,STAT.D=Abs.,ExtBa=13.22
26/09/2019,18:30:21,TEMP=13.6,BA=5.60,STAT.D=Abs.,ExtBa=13.23
26/09/2019,18:33:20,TEMP=13.6,BA=5.60,STAT.D=Abs.,ExtBa=13.23
26/09/2019,18:35:33,TEMP=13.7,BA=5.60,STAT.F,ExtBa=13.16
26/09/2019,18:50:31,TEMP=13.5,BA=5.52,STAT.D=Abs.,ExtBa=13.02
26/09/2019,18:54:20,TEMP=13.4,BA=5.52,STAT.D=Abs.,ExtBa=13.11
26/09/2019,18:57:20,TEMP=13.6,BA=5.52,STAT.D=Abs.,ExtBa=13.13
26/09/2019,19:00:20,TEMP=13.8,BA=5.60,STAT.D=Abs.,ExtBa=13.15
26/09/2019,19:03:20,TEMP=13.9,BA=5.60,STAT.D=Abs.,ExtBa=13.16
26/09/2019,19:05:31,TEMP=13.8,BA=5.60,STAT.D=Abs.,ExtBa=13.13
26/09/2019,19:09:20,TEMP=13.6,BA=5.60,STAT.D=Abs.,ExtBa=13.20
26/09/2019,19:12:20,TEMP=13.6,BA=5.52,STAT.D=Abs.,ExtBa=13.19
26/09/2019,19:15:20,TEMP=13.4,BA=5.52,STAT.D=Abs.,ExtBa=13.20
26/09/2019,19:18:20,TEMP=13.3,BA=5.52,STAT.D=Abs.,ExtBa=13.20
26/09/2019,19:20:31,TEMP=13.3,BA=5.52,STAT.D=Abs.,ExtBa=13.16
26/09/2019,19:24:20,TEMP=13.3,BA=5.52,STAT.D=Abs.,ExtBa=13.21
26/09/2019,19:27:20,TEMP=13.5,BA=5.52,STAT.D=Abs.,ExtBa=13.20
26/09/2019,19:30:20,TEMP=13.8,BA=5.60,STAT.D=Abs.,ExtBa=13.21
26/09/2019,19:33:20,TEMP=13.9,BA=5.60,STAT.D=Abs.,ExtBa=13.22
26/09/2019,19:35:32,TEMP=14.0,BA=5.60,STAT.F,ExtBa=13.19
26/09/2019,19:50:05,TEMP=14.0,BA=5.48,STAT.A=Abs.,ExtBa=13.00
26/09/2019,19:54:18,TEMP=14.0,BA=5.48,STAT.D=Abs.,ExtBa=13.11
26/09/2019,19:57:20,TEMP=14.1,BA=5.48,STAT.D=Abs.,ExtBa=13.13
26/09/2019,20:00:19,TEMP=14.0,BA=5.60,STAT.D=Abs.,ExtBa=13.13
26/09/2019,20:02:08,TEMP=14.0,BA=5.60,STAT.A=Abs.,ExtBa=13.10
26/09/2019,20:06:20,TEMP=13.7,BA=5.60,STAT.D=Abs.,ExtBa=13.17
26/09/2019,20:09:19,TEMP=13.7,BA=5.60,STAT.D=Abs.,ExtBa=13.17
26/09/2019,20:12:19,TEMP=13.8,BA=5.48,STAT.D=Abs.,ExtBa=13.18
26/09/2019,20:15:11,TEMP=13.9,BA=5.48,STAT.A=Abs.,ExtBa=13.18
26/09/2019,20:18:19,TEMP=14.0,BA=5.48,STAT.D=Abs.,ExtBa=13.19
26/09/2019,20:21:19,TEMP=14.2,BA=5.52,STAT.D=Abs.,ExtBa=13.20
26/09/2019,20:24:19,TEMP=14.2,BA=5.52,STAT.D=Abs.,ExtBa=13.21
26/09/2019,20:26:08,TEMP=14.3,BA=5.52,STAT.C=Abs.,ExtBa=13.17
26/09/2019,20:40:42,TEMP=13.6,BA=5.48,STAT.A=Abs.,ExtBa=12.98
26/09/2019,20:43:28,TEMP=13.6,BA=5.48,STAT.A=Abs.,ExtBa=13.04
26/09/2019,20:48:19,TEMP=13.3,BA=5.48,STAT.D=Abs.,ExtBa=13.14
26/09/2019,20:50:29,TEMP=13.3,BA=5.52,STAT.A=Abs.,ExtBa=13.12
26/09/2019,20:54:19,TEMP=13.2,BA=5.52,STAT.D=Abs.,ExtBa=13.16
26/09/2019,20:56:41,TEMP=13.4,BA=5.52,STAT.A=Abs.,ExtBa=13.15
26/09/2019,21:00:19,TEMP=13.4,BA=5.60,STAT.D=Abs.,ExtBa=13.18
26/09/2019,21:02:11,TEMP=13.6,BA=5.60,STAT.B=Abs.,ExtBa=13.14
26/09/2019,21:12:19,TEMP=12.9,BA=5.48,STAT.D=Abs.,ExtBa=12.98
26/09/2019,21:14:08,TEMP=13.0,BA=5.48,STAT.A=Abs.,ExtBa=12.98
26/09/2019,21:18:19,TEMP=12.7,BA=5.48,STAT.D=Abs.,ExtBa=13.09
26/09/2019,21:21:19,TEMP=12.7,BA=5.52,STAT.D=Abs.,ExtBa=13.10
26/09/2019,21:23:05,TEMP=12.8,BA=5.52,STAT.A=Abs.,ExtBa=13.06
26/09/2019,21:27:19,TEMP=12.4,BA=5.52,STAT.D=Abs.,ExtBa=13.13
26/09/2019,21:29:54,TEMP=12.4,BA=5.52,STAT.A=Abs.,ExtBa=13.13
26/09/2019,21:33:19,TEMP=12.3,BA=5.52,STAT.D=Abs.,ExtBa=13.15
26/09/2019,21:35:55,TEMP=12.4,BA=5.52,STAT.A=Abs.,ExtBa=13.14
26/09/2019,21:39:19,TEMP=12.3,BA=5.52,STAT.D=Abs.,ExtBa=13.17
26/09/2019,21:41:05,TEMP=12.5,BA=5.48,STAT.A=Abs.,ExtBa=13.13
26/09/2019,21:45:17,TEMP=12.2,BA=5.48,STAT.A=Abs.,ExtBa=13.20